Location: Gazon
(48.1318°N, 1.2708°W)
Time: 22:15:41
(UTC+00:00)

NOSS 2-2 (D) - Pass Details

Date: 18 September 2020
Orbit: 469 x 1739 km, 63.3° (Epoch: 23 October)

Event Time Altitude Azimuth Distance (km) Brightness Sun altitude
Rises 19:19:29 0° 205° (SSW) 2,509 6.8 -12.2°
Reaches altitude 10° 19:21:35 10° 199° (SSW) 1,624 5.8 -12.5°
Maximum altitude 19:24:57 48° 124° (SE) 644 3.2 -13.0°
Drops below altitude 10° 19:28:41 10° 49° (NE) 1,798 5.6 -13.6°
Sets 19:31:07 0° 44° (NE) 2,820 6.7 -14.0°
